Voltar ao catálogo

THORAD AGENA D DEB

AtivoSSO
NORAD 4864·DEBRIS·🇺🇸 United States

Lançado Apr 8, 1970 de Vandenberg Space Force Base

Loading…

Próximas Passagens (próximas 24 horas)

TLE

AtualizadoSource: Space-Track

Época: Sep 13, 2026, 06:02 UTC

1  4864U 70025EU  26256.25200655  .00000048  00000-0  14225-3 0  9991
2  4864  99.5322   7.5203 0045627 266.4722 123.0336 13.49545226772830

Acompanhe THORAD AGENA D DEB em tempo real com AllMySat

Download on the App Store